Black River Falls, WI

4:51 PM CST on February 23, 2018 (GMT -0600)
Black River Falls Area

Weather History for KBCK - April, 2013

Change the Weather History Date:

Thursday, April 18, 2013

  Actual Average (KCMY) Record (KCMY)
Temperature  
Mean Temperature 36 °F -  
Max Temperature 39 °F 61 °F 82 °F (2002)
Min Temperature 33 °F 36 °F 16 °F (1988)
Degree Days  
Heating Degree Days 29    
Moisture  
Dew Point 37 °F    
Average Humidity 99    
Maximum Humidity 100    
Minimum Humidity 93    
Precipitation  
Precipitation 0.27 in - - ()
Sea Level Pressure  
Sea Level Pressure 29.56 in    
Wind  
Wind Speed 8 mph (NNE)    
Max Wind Speed 17 mph    
Max Gust Speed 25 mph    
Visibility 6 miles    
Events Rain    
Averages and records for this station are not official NWS values.
T = Trace of Precipitation, MM = Missing Value Source: NWS Daily Summary

Daily Weather History Graph

Daily Weather History Graph

Search for Another Location

Airport or City:

Trip Planner

Search our weather history database for the weather conditions in past years. The results will help you decide how hot, cold, wet, or windy it might be!

Date:

Astronomy

Apr. 18, 2013 Rise Set
Actual Time 6:14 AM CDT 7:51 PM CDT
Civil Twilight 5:43 AM CDT 8:22 PM CDT
Nautical Twilight 5:06 AM CDT 8:59 PM CDT
Astronomical Twilight 4:27 AM CDT 9:39 PM CDT
Moon 12:23 PM CDT (4/18) 2:09 AM CDT (4/18)
Length of Visible Light 14h 38m
Length of Day
13h 37m
First Quarter, 52% of the Moon is Illuminated
Apr 18
First Quarter
Apr 25
Full
May 2
Last Quarter
May 9
New
May 17
First Quarter

Hourly Weather History & Observations

Time (CDT) Temp. Windchill Dew Point Humidity Pressure Visibility Wind Dir Wind Speed Gust Speed Precip Events Conditions
12:15 AM 35.6 °F 28.6 °F 35.6 °F 100% 29.85 in 7.0 mi NE 9.2 mph - 0.01 in Rain Light Rain
12:35 AM 35.6 °F 28.0 °F 35.6 °F 100% 29.82 in 10.0 mi ENE 10.4 mph - 0.01 in   Light Drizzle
12:55 AM 35.6 °F 25.5 °F 35.6 °F 100% 29.78 in 10.0 mi East 17.3 mph 20.7 mph 0.01 in   Overcast
1:15 AM 35.6 °F 29.9 °F 35.6 °F 100% 29.82 in 10.0 mi ENE 6.9 mph - N/A Rain Light Rain
1:35 AM 37.4 °F 30.3 °F 37.4 °F 100% 29.80 in 7.0 mi ENE 10.4 mph - N/A Rain Rain
1:55 AM 35.6 °F 29.9 °F 35.6 °F 100% 29.77 in 10.0 mi NE 6.9 mph - 0.01 in Rain Light Rain
2:15 AM 37.4 °F 31.4 °F 37.4 °F 100% 29.76 in 10.0 mi ENE 8.1 mph - N/A   Overcast
2:35 AM 37.4 °F 31.4 °F 37.4 °F 100% 29.74 in 10.0 mi NE 8.1 mph - N/A   Overcast
2:55 AM 37.4 °F 32.1 °F 37.4 °F 100% 29.72 in 10.0 mi NE 6.9 mph - N/A   Overcast
3:15 AM 37.4 °F 33.8 °F 37.4 °F 100% 29.74 in 10.0 mi NNE 4.6 mph - N/A   Overcast
3:35 AM 37.4 °F 34.9 °F 37.4 °F 100% 29.75 in 10.0 mi NNE 3.5 mph - N/A   Overcast
3:55 AM 37.4 °F 33.8 °F 37.4 °F 100% 29.74 in 10.0 mi NNE 4.6 mph - N/A   Overcast
4:15 AM 35.6 °F 29.2 °F 35.6 °F 100% 29.71 in 3.0 mi NNE 8.1 mph - N/A   Overcast
4:35 AM 37.4 °F 30.8 °F 37.4 °F 100% 29.68 in 2.5 mi NNE 9.2 mph - N/A Rain Light Rain
4:55 AM 37.4 °F 31.4 °F 37.4 °F 100% 29.69 in 5.0 mi NE 8.1 mph - N/A   Overcast
5:15 AM 37.4 °F 31.4 °F 37.4 °F 100% 29.69 in 3.0 mi NNE 8.1 mph - N/A   Overcast
5:35 AM 37.4 °F 32.8 °F 37.4 °F 100% 29.68 in 2.5 mi NNE 5.8 mph - N/A   Light Drizzle
5:55 AM 37.4 °F 31.4 °F 37.4 °F 100% 29.66 in 1.5 mi NNE 8.1 mph - N/A   Light Drizzle
6:15 AM 35.6 °F 31.7 °F 35.6 °F 100% 29.67 in 1.5 mi North 4.6 mph - N/A Rain Rain
6:35 AM 35.6 °F 29.2 °F 35.6 °F 100% 29.66 in 2.0 mi NE 8.1 mph - N/A Rain Rain
6:55 AM 35.6 °F 30.7 °F 35.6 °F 100% 29.67 in 4.0 mi NNE 5.8 mph - N/A   Light Drizzle
7:15 AM 35.6 °F 30.7 °F 35.6 °F 100% 29.67 in 5.0 mi North 5.8 mph - N/A   Light Drizzle
7:35 AM 35.6 °F 30.7 °F 35.6 °F 100% 29.66 in 4.0 mi NNE 5.8 mph - N/A   Drizzle
7:55 AM 35.6 °F 31.7 °F 35.6 °F 100% 29.69 in 4.0 mi NNW 4.6 mph - N/A   Drizzle
8:15 AM 35.6 °F 31.7 °F 35.6 °F 100% 29.72 in 2.0 mi NW 4.6 mph - N/A   Heavy Drizzle
8:35 AM 35.6 °F 30.7 °F 35.6 °F 100% 29.71 in 2.5 mi NNW 5.8 mph - N/A   Drizzle
8:55 AM 37.4 °F 30.8 °F 37.4 °F 100% 29.65 in 4.0 mi NE 9.2 mph - N/A   Drizzle
9:15 AM 37.4 °F 30.8 °F 37.4 °F 100% 29.60 in 10.0 mi NE 9.2 mph 18.4 mph N/A   Light Drizzle
9:35 AM 37.4 °F 28.9 °F 37.4 °F 100% 29.50 in 10.0 mi East 13.8 mph 25.3 mph N/A   Overcast
9:55 AM 37.4 °F - 37.4 °F 100% 29.60 in 10.0 mi Calm Calm - N/A   Overcast
10:15 AM 37.4 °F 32.8 °F 37.4 °F 100% 29.59 in 10.0 mi NNE 5.8 mph - N/A   Overcast
10:35 AM 37.4 °F 33.8 °F 37.4 °F 100% 29.58 in 10.0 mi NNE 4.6 mph - N/A   Overcast
10:55 AM 39.2 °F 35.9 °F 37.4 °F 93% 29.60 in 10.0 mi NE 4.6 mph - N/A   Overcast
11:15 AM 39.2 °F 35.9 °F 37.4 °F 93% 29.59 in 10.0 mi North 4.6 mph - N/A   Overcast
11:35 AM 39.2 °F 35.0 °F 37.4 °F 93% 29.57 in 10.0 mi North 5.8 mph - N/A   Overcast
11:55 AM 39.2 °F 34.2 °F 37.4 °F 93% 29.59 in 10.0 mi NE 6.9 mph - N/A   Overcast
12:15 PM 39.2 °F 33.0 °F 37.4 °F 93% 29.57 in 10.0 mi NE 9.2 mph - N/A   Overcast
12:35 PM 39.2 °F 35.0 °F 37.4 °F 93% 29.58 in 10.0 mi NNE 5.8 mph - N/A   Overcast
1:15 PM 39.2 °F 34.2 °F 37.4 °F 93% 29.54 in 10.0 mi NNE 6.9 mph - N/A   Overcast
1:35 PM 39.2 °F 32.5 °F 37.4 °F 93% 29.53 in 10.0 mi NE 10.4 mph - N/A   Overcast
1:55 PM 39.2 °F 32.5 °F 37.4 °F 93% 29.53 in 10.0 mi NE 10.4 mph - N/A   Overcast
2:15 PM 37.4 °F 29.8 °F 37.4 °F 100% 29.51 in 5.0 mi NE 11.5 mph - N/A   Overcast
2:35 PM 37.4 °F 30.3 °F 37.4 °F 100% 29.50 in 4.0 mi NE 10.4 mph - N/A   Overcast
2:55 PM 37.4 °F 29.3 °F 37.4 °F 100% 29.47 in 5.0 mi NE 12.7 mph - N/A   Overcast
3:15 PM 37.4 °F 29.8 °F 37.4 °F 100% 29.45 in 7.0 mi NE 11.5 mph - N/A Rain Light Rain
3:55 PM 37.4 °F 30.3 °F 37.4 °F 100% 29.42 in 7.0 mi ENE 10.4 mph - 0.10 in Rain Light Rain
4:15 PM 37.4 °F 29.3 °F 37.4 °F 100% 29.40 in 5.0 mi ENE 12.7 mph 16.1 mph N/A Rain Rain
4:35 PM 37.4 °F 30.8 °F 37.4 °F 100% 29.39 in 3.0 mi ENE 9.2 mph - 0.02 in Rain Heavy Rain
4:55 PM 37.4 °F 33.8 °F 37.4 °F 100% 29.39 in 1.0 mi NE 4.6 mph - 0.10 in Rain Light Rain
5:15 PM 37.4 °F 34.9 °F 37.4 °F 100% 29.38 in 4.0 mi NE 3.5 mph - 0.01 in Rain Rain
5:35 PM 37.4 °F 33.8 °F 37.4 °F 100% 29.37 in 2.0 mi NNE 4.6 mph - 0.02 in   Drizzle
5:55 PM 37.4 °F 33.8 °F 37.4 °F 100% 29.36 in 2.5 mi NNE 4.6 mph - 0.03 in Rain Rain
6:15 PM 39.2 °F 37.0 °F 39.2 °F 100% 29.35 in 2.0 mi North 3.5 mph - 0.01 in Rain Light Rain
6:35 PM 37.4 °F 33.8 °F 37.4 °F 100% 29.36 in 1.5 mi WNW 4.6 mph - 0.02 in Rain Heavy Rain
7:15 PM 37.4 °F 32.8 °F 37.4 °F 100% 29.34 in 2.5 mi NNW 5.8 mph - N/A   Light Drizzle
7:35 PM 37.4 °F 33.8 °F 37.4 °F 100% 29.33 in 2.0 mi NNW 4.6 mph - N/A   Drizzle
7:55 PM 37.4 °F 32.8 °F 37.4 °F 100% 29.33 in 1.5 mi NW 5.8 mph - N/A   Drizzle
8:15 PM 37.4 °F 32.8 °F 37.4 °F 100% 29.33 in 1.5 mi NNW 5.8 mph - N/A   Drizzle
8:35 PM 37.4 °F 33.8 °F 37.4 °F 100% 29.33 in 1.5 mi NW 4.6 mph - N/A   Drizzle
8:55 PM 37.4 °F 34.9 °F 37.4 °F 100% 29.34 in 1.2 mi WNW 3.5 mph - N/A   Drizzle
10:55 PM 35.6 °F 29.9 °F 35.6 °F 100% 29.34 in 2.0 mi West 6.9 mph - N/A Rain Light Rain
11:15 PM 33.8 °F 27.0 °F 33.8 °F 100% 29.33 in 3.0 mi WSW 8.1 mph - N/A   Light Drizzle
11:35 PM 33.8 °F 26.4 °F 33.8 °F 100% 29.32 in 7.0 mi West 9.2 mph - N/A   Light Drizzle
11:55 PM 33.8 °F 27.0 °F 33.8 °F 100% 29.32 in 7.0 mi WSW 8.1 mph - N/A Rain Light Rain